Location: Kumla
(59.1265°N, 15.1401°E)
Time: 18:18:42
(UTC+01:00)

Vanguard 2 Rocket - Pass Details

Date: 10 December 2023
Orbit: 554 x 3309 km, 32.9° (Epoch: 26 February)

Event Time Altitude Azimuth Distance (km) Brightness Sun altitude
Rises 17:59:54 0° 261° (W) 6,943 13.0 -20.5°
Reaches altitude 10° 18:06:14 10° 248° (WSW) 6,156 12.2 -21.3°
Maximum altitude 18:18:25 20° 210° (SSW) 5,370 11.2 -22.9°
Drops below altitude 10° 18:30:07 10° 171° (S) 5,856 10.9 -24.3°
Sets 18:35:58 0° 157° (SSE) 6,517 11.1 -25.1°
